TimePDT,TemperatureF,Dew PointF,Humidity,Sea Level PressureIn,VisibilityMPH,Wind Direction,Wind SpeedMPH,Gust SpeedMPH,PrecipitationIn,Events,Conditions,WindDirDegrees,DateUTC
12:56 AM,43.0,39.9,89,30.02,10.0,SSE,4.6,-,N/A,,Clear,160,2013-05-25 07:56:00
1:56 AM,42.1,39.0,89,30.03,10.0,SSE,4.6,-,N/A,,Clear,160,2013-05-25 08:56:00
2:56 AM,43.0,39.0,86,30.03,10.0,Calm,Calm,-,N/A,,Clear,0,2013-05-25 09:56:00
3:56 AM,41.0,37.9,89,30.04,10.0,SE,3.5,-,N/A,,Clear,140,2013-05-25 10:56:00
4:56 AM,41.0,37.9,89,30.04,10.0,SSE,3.5,-,N/A,,Overcast,160,2013-05-25 11:56:00
5:56 AM,42.1,39.0,89,30.04,10.0,Calm,Calm,-,N/A,,Overcast,0,2013-05-25 12:56:00
6:56 AM,45.0,39.9,82,30.05,10.0,SSE,3.5,-,N/A,,Clear,160,2013-05-25 13:56:00
7:56 AM,48.9,43.0,80,30.04,10.0,ENE,4.6,-,N/A,,Clear,60,2013-05-25 14:56:00
8:56 AM,52.0,43.0,71,30.04,10.0,NNE,4.6,-,N/A,,Partly Cloudy,30,2013-05-25 15:56:00
9:56 AM,55.0,43.0,64,30.04,10.0,Calm,Calm,-,N/A,,Clear,0,2013-05-25 16:56:00
10:56 AM,59.0,42.1,53,30.02,10.0,Calm,Calm,-,N/A,,Partly Cloudy,0,2013-05-25 17:56:00
11:56 AM,61.0,39.9,46,30.01,10.0,Variable,3.5,-,N/A,,Mostly Cloudy,0,2013-05-25 18:56:00
12:56 PM,63.0,36.0,37,30.01,10.0,Variable,5.8,-,N/A,,Mostly Cloudy,0,2013-05-25 19:56:00
1:56 PM,64.0,37.0,37,30.00,10.0,NW,6.9,-,N/A,,Overcast,310,2013-05-25 20:56:00
2:56 PM,66.0,36.0,33,29.98,10.0,Calm,Calm,-,N/A,,Partly Cloudy,0,2013-05-25 21:56:00
3:56 PM,66.0,36.0,33,29.98,10.0,WNW,5.8,-,N/A,,Overcast,300,2013-05-25 22:56:00
4:56 PM,66.0,36.0,33,29.98,10.0,NNW,5.8,-,N/A,,Overcast,340,2013-05-25 23:56:00
5:56 PM,66.9,36.0,32,29.96,10.0,North,3.5,-,N/A,,Clear,360,2013-05-26 00:56:00
6:56 PM,66.0,39.0,37,29.96,10.0,WNW,3.5,-,N/A,,Clear,300,2013-05-26 01:56:00
7:56 PM,63.0,39.9,43,29.96,10.0,North,4.6,-,N/A,,Clear,350,2013-05-26 02:56:00
8:56 PM,62.1,39.0,43,29.96,10.0,NNE,3.5,-,N/A,,Clear,30,2013-05-26 03:56:00
9:56 PM,57.0,41.0,55,29.96,10.0,Calm,Calm,-,N/A,,Clear,0,2013-05-26 04:56:00
10:56 PM,54.0,41.0,62,29.96,10.0,SE,4.6,-,N/A,,Clear,140,2013-05-26 05:56:00
11:56 PM,51.1,41.0,68,29.96,10.0,SE,3.5,-,N/A,,Clear,130,2013-05-26 06:56:00